Find Starlink 30611

NORAD ID: 58108 Int'l Des: 2023-161 Owner: SPXS Country: US Constellation: starlink operational
LEOCIRCULAR

Current View

Loading 3D Globe...

About Starlink 30611

Starlink 30611 (NORAD 58108) is a starlink constellation satellite (v2 mini) launched Oct 21, 2023 by SPXS of US. It operates in LEO, CIRCULAR orbit with a mass of 730.00 kg.

Upcoming Passes

Passes for default location (London). Set your location on the main map for personalized predictions.

Altitude History

Loading altitude history...

Two-Line Element Set

1 58108U 23161M 26236.58262941 -.00001842 00000-0 -43383-4 0 9993
2 58108 53.1591 89.3731 0001513 80.3928 279.7246 15.34394105160356
Epoch: Aug 24, 2026 • Age: 21 hours

Current Status

Altitude 466.2 km
Apogee / Perigee N/A
Velocity 7.64 km/s
Sub-Earth Point 43.39°N, 84.36°E
Launch Date Oct 21, 2023
Age 2.8 years
Type internet

Technical Details

Classification Payload
Mass 730.00 kg
Dry Mass 700.00 kg
Total Mass 730.00 kg
Length 0.30 m
Diameter 4.10 m
Span 29.00 m
Shape Box + pan
Manufacturer SPXS
Bus Type Starlink V2M
Phase Status In Orbit
Owner/State SPXS/US

Most Searched